| time (UTC) | temp F | wind direction | speed MPH | gust MPH | rain 1hr in | rain 24hr in | rain mn in | humidity % | barometer mb |
| 20260502123109 | 26 | 0 | 0.0 | 0.0 | 0.00 | 0.00 | 0.00 | 93 | 1015.8 |
| 20260502121557 | 25 | 0 | 0.0 | 0.0 | 0.00 | 0.00 | 0.00 | 92 | 1015.8 |
| 20260502114547 | 24 | 0 | 0.0 | 0.0 | 0.00 | 0.00 | 0.00 | 92 | 1015.8 |
| 20260502113050 | 23 | 0 | 0.0 | 0.0 | 0.00 | 0.00 | 0.00 | 91 | 1015.9 |
| 20260502111547 | 23 | 0 | 0.0 | 0.0 | 0.00 | 0.00 | 0.00 | 91 | 1015.8 |
| 20260502110046 | 23 | 0 | 0.0 | 0.0 | 0.00 | 0.00 | 0.00 | 91 | 1015.7 |
| 20260502104548 | 23 | 0 | 0.0 | 0.0 | 0.00 | 0.00 | 0.00 | 91 | 1015.8 |
| 20260502103047 | 23 | 0 | 0.0 | 0.0 | 0.00 | 0.00 | 0.00 | 91 | 1015.8 |
| 20260502101547 | 23 | 0 | 0.0 | 0.0 | 0.00 | 0.00 | 0.00 | 91 | 1015.9 |
| 20260502070101 | 26 | 0 | 0.0 | 0.0 | 0.00 | 0.00 | 0.00 | 87 | 1016.1 |
| 20260502064553 | 26 | 0 | 0.0 | 0.0 | 0.00 | 0.00 | 0.00 | 87 | 1016.2 |
| 20260502063050 | 26 | 0 | 0.0 | 0.0 | 0.00 | 0.00 | 0.00 | 86 | 1016.3 |
| 20260502061542 | 26 | 0 | 0.0 | 0.0 | 0.00 | 0.00 | 0.00 | 86 | 1016.4 |
| 20260502060052 | 27 | 0 | 0.0 | 0.0 | 0.00 | 0.00 | 0.00 | 85 | 1016.3 |
| 20260502054545 | 27 | 0 | 0.0 | 0.0 | 0.00 | 0.00 | 0.00 | 85 | 1016.3 |
| 20260502053045 | 27 | 0 | 0.0 | 0.0 | 0.00 | 0.00 | 0.00 | 84 | 1016.3 |
| 20260502051559 | 27 | 0 | 0.0 | 0.0 | 0.00 | 0.00 | 0.00 | 84 | 1016.4 |
| 20260502050048 | 27 | 0 | 0.0 | 0.0 | 0.00 | 0.00 | 0.00 | 83 | 1016.4 |
| 20260502044546 | 28 | 0 | 0.0 | 0.0 | 0.00 | 0.00 | 0.00 | 83 | 1016.4 |
| 20260502043046 | 28 | 0 | 0.0 | 0.0 | 0.00 | 0.00 | 0.00 | 81 | 1016.4 |
| 20260502041542 | 28 | 0 | 0.0 | 0.0 | 0.00 | 0.00 | 0.00 | 79 | 1016.4 |
| 20260502040042 | 28 | 0 | 0.0 | 0.0 | 0.00 | 0.00 | 0.00 | 78 | 1016.5 |
| 20260502034546 | 29 | 0 | 0.0 | 0.0 | 0.00 | 0.00 | 0.00 | 78 | 1016.5 |
| 20260502033048 | 29 | 0 | 0.0 | 0.0 | 0.00 | 0.00 | 0.00 | 77 | 1016.6 |
| 20260502031544 | 29 | 0 | 0.0 | 0.0 | 0.00 | 0.00 | 0.00 | 75 | 1016.6 |
| 20260502030045 | 30 | 0 | 0.0 | 0.0 | 0.00 | 0.00 | 0.00 | 73 | 1016.7 |
| 20260502024546 | 31 | 0 | 0.0 | 0.0 | 0.00 | 0.00 | 0.00 | 70 | 1016.5 |
| 20260502023047 | 31 | 0 | 0.0 | 0.0 | 0.00 | 0.00 | 0.00 | 67 | 1016.6 |
| 20260502021545 | 33 | 0 | 0.0 | 0.0 | 0.00 | 0.00 | 0.00 | 65 | 1016.6 |
| 20260502020045 | 34 | 0 | 0.0 | 0.0 | 0.00 | 0.00 | 0.00 | 63 | 1016.8 |
| 20260502014540 | 35 | 0 | 0.0 | 0.0 | 0.00 | 0.00 | 0.00 | 59 | 1016.7 |
| 20260502013047 | 36 | 0 | 0.0 | 0.0 | 0.00 | 0.00 | 0.00 | 56 | 1016.4 |
| 20260502011545 | 37 | 0 | 0.0 | 0.0 | 0.00 | 0.00 | 0.00 | 52 | 1016.4 |
| 20260502010044 | 38 | 0 | 0.0 | 5.0 | 0.00 | 0.00 | 0.00 | 50 | 1016.4 |
| 20260502004547 | 39 | 0 | 1.0 | 6.0 | 0.00 | 0.00 | 0.00 | 50 | 1016.4 |
| 20260502003048 | 40 | 355 | 1.0 | 12.0 | 0.00 | 0.00 | 0.00 | 46 | 1016.2 |
| 20260502001552 | 41 | 79 | 2.0 | 9.0 | 0.00 | 0.00 | 0.00 | 47 | 1016.3 |
| 20260502000044 | 41 | 320 | 2.0 | 11.0 | 0.00 | 0.00 | 0.00 | 47 | 1016.2 |
| 20260501234553 | 42 | 298 | 3.0 | 11.0 | 0.00 | 0.00 | 0.00 | 42 | 1016.0 |
| 20260501233047 | 42 | 294 | 3.0 | 10.0 | 0.00 | 0.00 | 0.00 | 45 | 1016.2 |
| 20260501231553 | 42 | 301 | 6.0 | 16.0 | 0.00 | 0.00 | 0.00 | 45 | 1016.2 |
| 20260501230045 | 42 | 281 | 3.0 | 12.0 | 0.00 | 0.00 | 0.00 | 41 | 1016.2 |
| 20260501224544 | 42 | 336 | 4.0 | 14.0 | 0.00 | 0.00 | 0.00 | 41 | 1016.1 |
| 20260501223049 | 42 | 292 | 4.0 | 12.0 | 0.00 | 0.00 | 0.00 | 41 | 1016.1 |
| 20260501221556 | 42 | 313 | 8.0 | 15.0 | 0.00 | 0.00 | 0.00 | 41 | 1016.3 |
| 20260501220047 | 42 | 302 | 7.0 | 13.0 | 0.00 | 0.00 | 0.00 | 40 | 1016.2 |
| 20260501214550 | 43 | 289 | 4.0 | 12.0 | 0.00 | 0.00 | 0.00 | 39 | 1016.0 |
| 20260501213045 | 44 | 302 | 6.0 | 15.0 | 0.00 | 0.00 | 0.00 | 41 | 1016.1 |
| 20260501211549 | 44 | 326 | 8.0 | 15.0 | 0.00 | 0.00 | 0.00 | 39 | 1016.0 |
| 20260501210046 | 44 | 329 | 2.0 | 12.0 | 0.00 | 0.00 | 0.00 | 38 | 1016.0 |
| 20260501204545 | 45 | 140 | 5.0 | 14.0 | 0.00 | 0.00 | 0.00 | 38 | 1016.0 |
| 20260501203053 | 44 | 136 | 2.0 | 9.0 | 0.00 | 0.00 | 0.00 | 41 | 1016.0 |
| 20260501201555 | 43 | 337 | 6.0 | 11.0 | 0.00 | 0.00 | 0.00 | 45 | 1016.1 |
| 20260501200048 | 42 | 309 | 9.0 | 14.0 | 0.00 | 0.00 | 0.00 | 47 | 1016.0 |
| 20260501194551 | 43 | 70 | 3.0 | 14.0 | 0.00 | 0.00 | 0.00 | 45 | 1016.1 |
| 20260501193046 | 43 | 291 | 7.0 | 15.0 | 0.00 | 0.00 | 0.00 | 47 | 1016.1 |
| 20260501191553 | 42 | 78 | 3.0 | 10.0 | 0.00 | 0.00 | 0.00 | 49 | 1016.0 |
| 20260501190050 | 42 | 277 | 2.0 | 13.0 | 0.00 | 0.00 | 0.00 | 47 | 1015.9 |
| 20260501184551 | 42 | 300 | 2.0 | 13.0 | 0.00 | 0.00 | 0.00 | 46 | 1015.9 |
| 20260501183046 | 41 | 0 | 4.0 | 13.0 | 0.00 | 0.00 | 0.00 | 47 | 1016.0 |
| 20260501181716 | 41 | 343 | 3.0 | 15.0 | 0.00 | 0.00 | 0.00 | 49 | 1016.1 |
| 20260501180045 | 40 | 84 | 3.0 | 9.0 | 0.00 | 0.00 | 0.00 | 49 | 1016.1 |
| 20260501174554 | 40 | 272 | 2.0 | 8.0 | 0.00 | 0.00 | 0.00 | 51 | 1016.1 |
| 20260501173106 | 40 | 74 | 4.0 | 12.0 | 0.00 | 0.00 | 0.00 | 52 | 1016.1 |
| 20260501171546 | 39 | 303 | 4.0 | 8.0 | 0.00 | 0.00 | 0.00 | 55 | 1016.2 |
| 20260501170046 | 39 | 306 | 2.0 | 9.0 | 0.00 | 0.00 | 0.00 | 55 | 1016.2 |
| 20260501164549 | 38 | 34 | 2.0 | 9.0 | 0.00 | 0.00 | 0.00 | 55 | 1016.3 |
| 20260501163054 | 38 | 288 | 5.0 | 13.0 | 0.00 | 0.00 | 0.00 | 56 | 1016.2 |
| 20260501161547 | 37 | 300 | 3.0 | 13.0 | 0.00 | 0.00 | 0.00 | 63 | 1016.3 |
| 20260501160047 | 35 | 343 | 5.0 | 15.0 | 0.00 | 0.00 | 0.00 | 64 | 1016.3 |
| 20260501154922 | 34 | 0 | 2.0 | 8.0 | 0.00 | 0.00 | 0.00 | 64 | 1016.3 |
| 20260501141606 | 33 | 171 | 1.0 | 8.0 | 0.00 | 0.00 | 0.00 | 69 | 1016.3 |
| 20260501140053 | 33 | 324 | 1.0 | 6.0 | 0.00 | 0.00 | 0.00 | 69 | 1016.1 |